Location: Newark
(44.4156°N, 12.1972°E)
Time: 08:10:05
(UTC+00:00)

STARLINK-1108 - Pass Details

Date: 03 February 2020
Orbit: 348 x 351 km, 53.0° (Epoch: 23 February)

Event Time Altitude Azimuth Distance (km) Brightness Sun altitude
Rises 16:49:39 0° 300° (WNW) 2,160 7.4 -5.4°
Reaches altitude 10° 16:51:42 10° 294° (WNW) 1,314 6.4 -5.7°
Maximum altitude 16:54:31 46° 219° (SW) 480 3.8 -6.2°
Drops below altitude 10° 16:57:20 10° 144° (SE) 1,306 5.4 -6.7°
Sets 16:59:22 0° 138° (SE) 2,144 6.4 -7.0°
